FENGYUN 1C DEB

Satellite information

Favourite Embed

Satellite Type and Status

DEBRISIN ORBIT

Key statistics

Satellite FENGYUN 1C DEB at a glance.

Uptime

9672

Days in orbit

Revolutions

≈ 14.5

Per day

Orbit

SSO

Sun Synchronous Orbit

Inclination

98.7

Latest

Satellite identification and parameters

Extended collection of information and parameters for FENGYUN 1C DEB.

Object identification

Identified? True

Debris? True

Object name: FENGYUN 1C DEB

International designator: 1999-025BRX

Object number (NORAD): 31367

Object ID (CCSDS): 31367

Country: PEOPLES REPUBLIC OF CHINA (PRC)

Current information (Y/N): Y

RCS size: SMALL

Orbital parameters

Period: 99.501 minutes

Inclination: 98.7461 deg

SMA: 7112.889 km

Apoapsis: 805.371 km

Periapsis: 664.137 km

RAAN: 195.7674 deg

Eccentricy: 0.00992803

Argument of periapsis: 146.8809 deg

Mean anomaly: 225.55 deg

Mean motion: 14.47217297 rev/day

Mean motion (dot): 0.00002345 rev/day2

B* drag term: 0.0006164438 1/REarth

Two-line elements (TLE)

Creation date: Oct. 30, 2025, 3:32 a.m.

Reference frame: TEME

Reference center: EARTH

Epoch: Oct. 29, 2025, 11:18 p.m. UTC

TLE line 0: 0 FENGYUN 1C DEB

TLE line 1: 1 31367U 99025BRX 25302.97110227 .00002345 00000-0 61644-3 0 9994

TLE line 2: 2 31367 98.7461 195.7674 0099280 146.8809 225.5500 14.47217297978333

Live tracking on map

Real-time ground track for satellite FENGYUN 1C DEB.

In-orbit conjunctions

A list of the most updated potential collisions computed for object FENGYUN 1C DEB.

Target Orbit TCA Probability of collision Miss distance Type
FENGYUN 1C DEB SSO 2025-08-05 01:26:08 0.0001373906 225.0 (m) DEBRIS
FENGYUN 1C DEB SSO 2025-07-09 19:19:32 0.0001284082 80.0 (m) DEBRIS
CZ-6A DEB LEO 2024-11-14 07:20:51 0.0001110821 905.0 (m) DEBRIS
CZ-2D R/B SSO 2024-07-12 03:40:19 0.0001484002 746.0 (m) ROCKET BODY

Associated space launch

Chinese polar orbiting meteorological satellite

FENGYUN 1C DEB was lifted into orbit during the mission ‘Long March 4B | Feng Yun 1C’, on board a Long March 4B space rocket.

The launch took place on May 10, 1999, 1:33 a.m. from Launch Complex 7.

For more information about the launch, click the button.

Launch to space Long March 4B | Feng Yun 1C
Long March 4B | Feng Yun 1C

Agency: N/A

Status: Launch Successful

Launch date: May 10, 1999, 1:33 a.m. UTC

Rocket: Long March 4B

Launch pad: Launch Complex 7

Location: Taiyuan Satellite Launch Center, People's Republic of China

...

Latest news about this satellite

There are no fresh news available about this satellite. Check back as we update our databases every day.


Newsletter sign-up

Weekly statistics, charts and insights to help you stay on top of the space industry.